RH
32 31 30 29 28 28 30 31 32 33 33 27 14 6 6 4 2 3 3 3 3 3 5 6 6 6 6 6 6 7 8 8 8 9 9 9 9 10 10 9 9 11 11
32 33 34 32 29 28 28 28 29 32 35 34 34 26 8 6 4 2 2 3 3 5 6 6 7 7 8 8 8 8 8 8 9 10 9 10 10 11 10 10 9 10 11
35 36 35 32 30 30 30 28 26 27 28 30 34 33 31 14 6 5 4 4 5 6 6 7 7 7 7 8 8 8 9 10 10 10 10 11 11 10 10 9 9 9 11
38 37 36 34 32 32 32 32 29 23 22 23 24 28 33 31 22 6 6 7 7 7 7 8 8 9 9 9 9 9 9 9 9 9 9 10 9 9 8 8 8 9 10
39 38 38 37 35 36 35 34 33 28 23 19 16 16 21 31 30 22 11 6 6 7 7 7 8 8 8 8 9 9 8 8 8 8 8 8 8 8 9 9 10 10 11
41 38 40 39 38 39 38 36 35 33 28 23 16 14 12 16 28 29 24 19 13 9 7 7 7 7 7 7 8 8 9 9 9 9 10 12 14 14 15 15 14 13 13
42 41 41 41 40 42 41 39 38 34 31 28 22 18 16 13 12 22 26 24 21 19 18 16 15 14 14 14 14 15 16 18 19 20 20 20 20 19 19 18 17 16 16
42 41 41 42 42 42 43 41 40 36 33 31 28 22 20 20 17 14 17 21 23 23 23 23 23 24 24 24 25 25 24 24 23 23 22 22 24 26 27 26 25 24 22
43 42 42 42 42 43 44 43 42 39 34 33 31 29 24 22 23 22 22 22 23 23 25 26 27 26 27 27 27 28 30 29 29 29 28 28 28 27 28 29 29 30 32
40 41 42 42 43 43 44 44 44 41 37 34 34 32 31 27 25 26 28 28 30 31 32 33 33 34 29 30 30 30 31 30 28 28 26 22 21 20 20 21 22 26 88
45 42 42 43 43 44 43 45 44 42 39 38 36 35 34 35 31 28 28 29 31 32 33 33 32 32 32 31 30 29 26 24 22 22 22 23 24 26 28 29 30 31 30
45 43 42 42 43 43 43 45 46 43 42 40 39 38 37 37 37 35 32 33 33 32 32 32 32 33 32 29 27 27 27 27 26 26 28 30 32 32 33 33 32 33 35
48 45 43 43 43 43 44 44 47 44 44 43 41 40 39 40 40 39 38 37 36 33 32 32 34 33 30 29 29 28 29 32 34 33 28 21 18 15 15 12 11 12 14
48 47 46 45 44 44 45 47 47 46 46 45 44 42 42 41 43 40 40 38 36 34 34 34 33 32 32 29 28 34 35 30 20 12 8 7 7 7 7 7 7 7 7
41 43 47 47 45 45 46 47 48 48 47 47 47 45 44 44 45 42 39 40 39 35 34 34 33 32 29 32 35 33 26 15 6 6 7 7 7 7 6 6 6 6 6
47 44 44 46 48 50 49 48 47 47 48 48 49 48 45 46 46 43 40 41 40 36 35 34 32 30 37 37 34 26 11 5 7 8 8 8 7 7 6 6 5 5 5
48 53 50 47 47 51 53 52 50 47 46 47 49 50 47 47 49 43 40 42 39 38 35 32 34 39 39 33 18 5 5 8 9 9 9 8 7 7 6 6 6 6 7
52 48 50 46 41 50 53 55 53 50 47 47 50 52 48 50 47 40 41 41 41 37 33 38 42 41 33 12 5 6 8 10 10 11 10 10 9 8 8 8 7 8 8
56 54 48 42 40 45 54 56 55 52 49 47 49 55 47 51 44 41 42 46 41 35 40 45 42 33 12 6 8 9 10 11 12 13 13 13 12 11 10 9 9 9 9
58 54 47 43 43 55 53 53 54 51 50 49 52 52 48 54 44 40 46 44 36 42 45 42 29 14 8 8 10 12 14 16 17 17 16 15 14 13 12 11 11 10 10
57 55 48 43 46 55 50 52 47 46 50 54 52 61 60 66 40 46 45 38 45 45 39 27 18 12 10 11 14 16 18 19 18 17 16 16 15 14 13 13 12 12 13
50 54 49 49 47 42 40 38 40 48 59 58 59 78 98 50 52 48 40 47 47 37 29 22 19 16 14 14 17 19 20 20 19 20 19 18 16 16 15 14 14 15 14
37 52 54 48 45 43 43 40 43 50 60 55 51 94 77 57 50 41 46 46 39 34 36 35 30 22 16 16 19 22 21 21 21 20 21 20 19 18 17 16 15 14 14
38 55 56 50 49 44 42 40 42 51 58 53 68 96 52 50 41 47 45 43 51 54 54 52 46 33 18 16 19 23 24 24 23 21 20 21 20 18 16 14 13 10 8
43 57 51 51 52 48 39 40 46 64 67 91 80 53 47 42 47 48 49 54 54 53 54 54 55 51 25 13 17 22 24 24 23 23 23 21 19 16 14 10 7 7 7
57 60 51 53 54 48 43 39 45 53 61 64 54 44 42 46 49 51 53 54 55 57 58 56 55 55 25 13 18 23 24 24 24 23 21 18 16 12 8 7 7 8 9
Wind_Speed
2 2 3 7 8 8 8 8 8 8 7 7 7 6 5 5 3 1 1 2 3 3 2 2 3 5 6 8 9 10 11 11 12 12 12 12 12 13 13 13 13 12 11
3 1 3 5 7 7 8 9 9 8 6 6 7 7 6 4 3 2 1 3 3 3 2 2 3 4 5 6 8 10 10 11 11 11 12 13 14 14 15 15 15 14 12
5 1 3 5 5 6 7 8 8 8 7 6 5 4 5 5 3 3 3 3 3 3 3 3 3 4 5 6 7 9 10 11 11 12 14 14 15 16 16 16 16 15 14
4 2 3 4 4 4 5 7 8 8 9 8 7 6 5 4 3 1 2 3 3 2 2 3 3 4 5 6 6 8 10 11 12 13 15 17 16 16 17 17 17 16 15
4 2 2 2 2 3 4 6 7 8 9 10 10 8 5 4 2 0 1 2 3 4 4 4 5 6 7 8 9 10 12 13 14 14 14 16 16 16 15 15 16 16 15
10 4 2 1 2 3 4 5 7 7 9 10 10 9 6 4 1 1 2 2 2 2 3 4 4 5 7 8 8 10 11 11 12 12 13 13 13 14 14 15 15 15 16
10 7 4 3 2 2 3 5 6 7 8 9 9 8 7 6 2 0 1 1 0 2 2 2 3 3 5 6 7 8 9 10 11 12 12 13 13 14 14 15 15 16 16
13 10 8 6 5 4 4 4 5 6 7 9 10 9 8 8 7 6 4 2 1 1 2 2 3 4 5 6 7 8 9 10 11 12 12 12 12 13 12 13 13 13 14
15 13 11 10 8 7 6 5 4 5 6 7 9 9 9 8 8 6 5 4 3 3 3 3 3 4 5 6 7 9 10 10 11 12 12 12 12 13 14 14 15 16 16
18 17 15 13 11 10 8 7 6 5 6 7 8 10 10 8 7 6 5 5 5 5 5 6 6 7 8 9 9 10 11 12 11 12 13 14 14 15 16 17 18 17 15
17 16 15 14 13 12 11 9 8 7 6 7 8 9 10 9 7 6 6 6 6 6 7 8 9 10 10 10 10 10 11 12 13 13 14 16 18 18 19 20 20 19 20
16 16 17 17 15 15 14 12 11 10 9 8 9 9 10 10 10 9 8 7 7 8 9 11 11 10 11 12 13 14 14 15 16 17 18 19 20 21 21 21 22 22 22
18 17 17 17 17 16 16 15 15 14 12 11 11 11 11 11 11 11 11 10 10 11 12 12 12 12 13 13 15 17 17 18 18 19 20 22 22 24 25 23 23 23 25
21 20 18 18 16 16 16 17 18 17 16 15 14 13 13 14 13 13 13 14 14 13 14 14 13 14 15 16 17 19 19 20 22 22 23 22 21 22 21 22 21 22 25
27 25 21 17 17 17 16 16 18 20 20 19 17 17 15 15 15 15 16 15 15 15 15 15 16 17 18 18 20 21 22 22 21 19 19 19 21 21 22 23 23 24 25
25 25 26 24 21 18 17 17 18 21 23 22 21 20 18 18 17 16 17 16 16 16 16 16 17 18 19 21 23 23 23 20 19 20 20 20 22 22 23 24 24 25 26
29 27 26 26 26 23 22 22 23 23 24 24 24 23 21 19 18 18 17 16 16 17 17 17 18 19 21 22 23 22 20 20 20 21 21 21 23 24 24 25 25 26 27
31 29 28 28 27 27 26 27 27 25 26 26 26 24 23 20 19 18 17 16 17 17 17 18 19 21 22 22 22 21 21 21 21 22 23 23 25 26 27 28 28 29 30
34 32 31 27 26 26 30 33 31 29 28 28 27 25 23 20 19 17 16 16 17 17 18 19 21 22 22 21 22 21 21 22 22 23 25 26 27 29 30 31 32 33 33
36 33 31 27 27 29 31 34 31 30 30 28 26 25 23 18 18 16 16 16 16 18 20 22 22 22 21 21 22 22 22 23 24 25 27 28 30 30 32 33 35 35 36
40 34 33 28 28 31 33 34 30 31 29 26 25 22 21 20 16 15 16 16 16 18 21 22 23 23 23 23 22 23 24 24 25 25 27 29 31 32 33 35 37 39 39
42 36 31 27 27 27 26 25 25 27 27 26 24 21 20 19 16 16 16 15 16 19 20 22 24 25 25 25 26 26 26 25 25 26 28 30 31 33 35 37 39 40 42
41 34 29 28 28 27 25 25 25 27 29 26 22 21 24 18 16 15 15 15 17 19 21 23 25 26 28 28 28 30 31 32 34 30 29 31 32 33 35 36 38 40 42
40 34 31 28 26 26 25 24 24 25 28 23 21 21 20 18 15 14 13 15 17 20 23 25 27 28 29 29 30 31 33 35 38 42 39 39 40 38 37 38 40 41 44
39 36 32 26 23 23 23 23 23 28 24 23 20 21 19 16 13 12 13 15 18 22 25 28 30 31 32 32 32 33 35 36 39 43 46 42 41 39 40 42 44 46 49
41 37 32 26 21 21 22 22 25 26 23 23 20 19 18 14 13 13 14 17 20 24 27 30 33 35 35 35 35 37 38 40 42 45 49 48 49 46 45 46 47 49 53
Wind_Direction
170 89 37 27 25 28 30 32 32 35 35 35 36 36 35 38 50 118 180 156 160 163 167 169 198 210 210 209 218 226 230 239 251 261 270 275 278 281 281 278 274 272 271
182 108 29 25 23 28 33 35 31 30 34 33 36 34 35 38 59 82 121 144 137 146 155 186 214 226 216 214 219 230 238 248 260 269 273 274 274 276 278 277 276 273 269
188 129 47 47 37 38 42 38 32 25 22 25 37 37 34 28 45 86 117 125 144 163 181 194 221 231 241 237 242 251 260 264 268 268 271 270 272 274 275 277 276 274 270
176 102 49 27 24 34 36 36 33 28 23 18 21 29 24 16 30 57 132 160 170 179 211 221 233 242 253 258 259 264 266 268 269 269 272 273 276 277 279 279 278 275 272
198 172 85 37 10 16 17 21 25 26 22 19 17 16 6 1 359 291 180 194 197 200 220 231 237 246 252 254 253 255 257 262 266 268 272 277 281 282 281 281 278 277 274
236 221 164 181 319 349 353 7 16 20 18 18 20 21 18 345 324 229 231 215 232 234 232 245 252 257 263 264 266 269 271 273 275 278 279 281 284 285 288 287 286 284 281
198 202 193 197 246 293 324 346 3 6 8 13 15 21 28 30 30 70 187 166 208 257 270 274 276 278 278 280 281 279 283 285 287 288 288 288 289 290 289 288 287 284 282
206 217 215 210 233 255 286 310 337 352 353 1 4 10 19 27 35 43 53 51 333 317 308 297 299 298 296 294 294 297 295 295 294 294 295 296 300 296 293 288 288 286 284
217 219 217 213 224 241 258 271 301 328 337 349 355 355 2 13 29 28 34 39 29 29 8 353 340 322 307 293 289 287 288 289 291 292 290 294 290 285 283 280 277 279 280
225 223 221 221 223 232 249 262 275 297 318 331 343 345 345 356 7 2 4 1 356 352 339 327 311 292 284 289 289 288 291 291 287 289 293 291 289 288 286 286 285 277 270
232 230 226 227 232 237 245 253 260 271 292 307 320 330 330 335 343 337 332 328 328 323 321 311 302 299 298 293 292 291 290 290 291 290 288 289 289 286 284 282 282 280 276
228 223 224 227 232 239 245 250 250 256 273 285 295 305 314 319 324 323 314 309 309 313 313 309 308 301 298 301 300 297 293 290 289 289 288 287 285 284 281 277 278 279 277
237 228 224 226 230 236 244 249 251 249 262 275 283 289 297 305 310 309 304 303 306 308 307 305 299 297 294 296 294 292 292 292 293 292 291 289 289 286 283 285 284 279 277
243 239 234 232 235 239 246 249 251 253 258 269 276 281 288 297 300 297 294 294 300 303 303 298 299 299 300 301 299 299 300 300 300 298 295 293 290 288 292 289 286 282 277
242 252 252 246 245 247 250 254 256 255 257 263 273 279 285 288 290 287 284 285 292 293 295 299 302 302 304 306 304 304 304 303 304 302 301 300 297 298 296 295 293 290 288
235 241 249 251 248 250 252 257 263 262 260 265 271 275 281 283 286 283 280 283 289 294 297 298 300 305 308 310 308 307 307 306 305 304 304 303 302 301 299 298 296 295 294
240 243 247 249 252 253 257 259 262 263 265 267 272 275 279 281 283 283 281 284 291 296 298 301 305 308 309 309 307 308 307 308 309 308 307 306 304 302 300 298 296 294 294
241 244 251 255 253 251 253 258 261 265 264 266 270 274 278 277 278 282 282 286 292 296 301 304 308 310 311 312 310 309 309 309 309 308 308 306 303 302 300 297 295 293 293
245 250 255 255 249 251 253 252 257 260 264 265 269 271 275 275 278 280 282 287 294 298 301 307 312 313 313 313 310 309 310 309 309 307 305 302 300 299 297 295 293 292 291
244 251 255 256 243 245 248 251 251 253 259 264 266 268 270 273 277 279 282 287 292 299 308 312 314 315 313 310 309 309 309 310 310 308 307 304 301 299 296 293 292 290 289
244 250 257 252 240 247 249 249 247 250 258 262 262 264 267 272 272 275 278 284 295 305 313 316 315 313 311 310 309 310 311 309 309 308 306 303 301 299 296 294 293 292 290
242 249 255 238 235 240 244 245 244 247 252 255 258 258 252 268 268 268 273 285 302 311 314 314 314 312 310 307 306 305 304 305 306 306 306 305 302 299 296 293 292 291 290
239 242 241 229 235 241 246 249 242 239 243 249 251 249 256 258 256 260 274 295 306 311 313 315 315 315 311 308 307 308 308 307 305 304 305 304 298 295 291 290 289 290 290
229 234 226 226 234 240 246 248 239 238 243 249 244 237 251 245 247 261 283 299 307 313 316 318 318 316 313 311 309 309 311 311 310 308 309 310 305 302 298 296 295 294 294
223 226 220 225 230 240 245 241 228 231 233 233 234 237 236 234 244 266 286 299 308 314 319 320 320 319 318 314 311 313 314 313 313 311 309 306 302 300 298 298 300 299 299
216 219 219 221 233 242 240 234 222 228 224 227 233 230 225 231 249 269 287 299 308 315 319 321 322 321 319 316 315 316 315 314 313 311 310 309 307 305 303 302 301 300 300